Location: Peebles
(55.6412°N, 3.1714°W)
Time: 10:51:20
(UTC+01:00)

OBJECT A - Pass Details

Date: 10 July 2022
Orbit: 611 x 632 km, 97.9° (Epoch: 16 August)

Event Time Altitude Azimuth Distance (km) Brightness Sun altitude
Exits shadow 00:36:15 - 218° (SW) 2,319 ? -11.6°
Reaches altitude 10° 00:37:22 10° 227° (SW) 1,986 ? -11.6°
Maximum altitude 00:40:21 18° 271° (W) 1,522 ? -11.7°
Drops below altitude 10° 00:43:21 10° 315° (NW) 1,989 ? -11.7°
Sets 00:46:10 0° 335° (NNW) 2,898 ? -11.8°
